Theta_e
310 310 310 310 310 310 310 310 310 311 311 311 311 312 312 312 312 313 313 313 313 313 313 314 313 314 314 314 314 314 314 314 314 313 314 315 314 314 314 314 314 315 316 315 315 315 315 315 314 315 315 315 316 316 317 317 317 318 319 319 318 319 319 319 319 318 317 317 318 316 314 316 316 316 315 315 315 315 316 316 316 316 316 317 317 317 317 316
310 310 310 310 310 310 310 310 310 310 310 311 311 312 312 312 312 312 313 313 313 313 313 314 313 314 313 314 314 314 314 314 314 313 314 315 314 315 315 315 314 314 314 315 315 315 315 315 315 315 315 316 316 317 318 318 318 319 319 318 318 320 319 318 318 318 317 316 317 317 314 314 315 315 314 314 316 316 316 317 317 316 316 316 316 316 316 316
309 310 310 310 310 310 310 310 310 310 310 310 311 311 311 312 312 312 312 313 313 313 313 313 313 313 313 313 313 313 313 313 313 313 314 314 314 314 315 315 314 314 314 315 315 315 314 314 315 315 315 316 317 317 318 318 319 320 319 318 319 320 318 316 317 317 316 316 317 317 315 313 314 314 314 314 316 316 316 317 318 317 317 317 316 316 316 316
309 309 310 310 310 310 310 310 310 310 310 310 311 311 311 311 311 312 312 312 312 312 312 312 313 313 313 313 313 313 313 314 314 314 314 315 314 314 314 315 314 314 314 314 315 314 314 314 314 314 315 316 316 316 318 318 319 319 317 318 320 319 318 317 316 316 316 315 315 315 314 314 315 313 313 315 315 316 317 318 318 317 317 317 317 316 316 315
309 309 310 310 310 310 310 310 310 310 310 310 310 311 311 311 311 311 311 312 312 312 312 312 312 312 312 312 312 312 313 314 315 314 315 316 314 314 314 315 315 314 314 314 314 314 314 314 314 314 315 316 316 316 318 318 318 318 317 319 320 317 316 318 317 316 316 314 314 314 314 315 315 313 313 314 315 316 318 318 317 317 316 316 316 316 315 315
309 309 310 310 310 310 310 310 310 310 310 310 310 310 311 311 311 311 311 311 311 312 312 312 312 312 312 312 312 312 313 315 315 314 316 315 314 314 314 315 315 315 314 314 315 314 314 314 313 315 315 316 316 316 316 317 317 317 318 319 319 317 317 318 317 316 316 314 314 315 315 315 314 315 315 314 315 316 316 316 316 316 316 315 315 315 315 315
310 310 310 310 310 310 311 311 311 311 311 311 311 311 311 311 312 312 312 312 312 312 312 313 313 313 313 313 313 313 313 315 315 315 315 315 314 314 315 315 315 315 314 314 315 315 315 314 314 315 315 315 316 316 315 315 316 316 317 318 317 317 317 317 316 316 316 315 315 315 315 315 315 316 315 314 315 315 315 315 315 315 315 315 314 315 314 314
311 311 311 311 311 311 312 312 312 312 312 312 312 312 313 313 313 313 313 313 313 313 313 313 313 313 313 313 312 312 312 315 316 315 315 315 315 315 315 315 315 314 314 315 315 315 315 314 314 314 315 316 315 315 314 314 316 315 316 317 316 315 316 316 315 315 315 314 315 314 315 316 316 316 314 314 315 315 315 315 314 315 314 314 314 314 314 314
312 313 313 313 313 313 313 313 314 314 314 314 314 314 315 315 315 315 315 315 315 315 315 314 314 313 313 312 311 311 313 315 316 315 315 315 315 315 315 315 315 315 315 315 315 315 315 314 314 314 315 315 314 314 314 314 315 316 316 317 316 315 315 314 313 314 314 314 314 313 314 316 315 314 314 314 315 315 314 314 314 314 314 314 314 314 314 314
315 316 316 316 316 317 317 317 317 317 317 317 318 318 318 319 319 319 319 319 319 319 319 319 318 317 316 315 312 312 314 315 315 315 315 315 315 315 315 315 315 315 315 315 315 315 315 315 314 314 314 314 313 313 313 313 314 313 314 314 314 314 314 313 312 313 312 312 312 312 314 315 314 312 314 315 315 314 314 314 314 314 314 314 314 314 313 314
319 319 319 320 320 320 320 320 320 321 321 321 321 322 322 322 323 323 323 323 323 323 323 323 323 322 321 319 314 314 316 315 315 315 314 314 314 314 315 315 315 315 315 315 314 315 315 315 314 314 314 313 313 312 311 313 313 311 311 312 313 314 313 312 312 312 312 311 312 312 312 314 313 311 313 315 314 314 313 313 313 313 313 313 314 314 314 314
319 320 319 320 320 320 320 320 320 320 320 320 320 320 321 321 321 321 320 320 320 320 320 321 322 322 322 320 318 319 320 319 318 317 315 314 313 313 314 314 314 314 315 314 314 314 315 315 315 314 313 313 313 312 311 311 311 311 311 312 313 313 313 314 313 312 311 311 311 311 312 313 313 312 313 314 314 313 312 312 313 313 313 313 314 314 314 315
317 317 316 316 316 316 316 316 316 315 315 315 315 315 315 316 315 315 315 315 315 315 315 315 316 318 319 319 319 321 321 320 320 319 318 316 313 312 313 314 314 314 314 314 314 315 315 315 314 313 312 312 312 311 311 310 310 311 311 311 312 313 313 314 313 311 310 311 310 311 312 313 314 315 315 314 313 312 311 312 312 313 313 313 314 314 314 314
313 313 313 313 313 313 313 312 313 312 312 312 312 313 313 313 313 313 313 313 314 313 313 313 312 313 315 316 318 318 318 318 319 319 318 317 314 312 312 312 313 313 314 313 314 314 314 314 313 312 311 312 312 311 311 310 310 311 311 310 312 313 314 313 311 309 310 310 310 310 311 313 314 316 315 314 313 312 311 312 312 313 313 313 313 313 313 314
312 312 312 312 312 311 311 311 311 311 312 312 312 312 312 313 313 313 313 313 313 313 313 312 311 311 313 314 315 315 316 316 317 317 317 316 313 311 311 312 312 313 313 313 314 313 312 312 312 312 311 311 311 311 312 311 311 311 311 313 313 312 313 314 312 310 311 310 308 310 312 313 314 315 315 314 312 311 311 312 312 313 312 312 312 312 312 314
311 311 311 311 311 311 311 311 312 312 313 313 313 313 313 313 313 313 313 313 313 313 312 312 312 311 312 314 315 315 315 315 315 315 316 315 314 312 311 311 311 312 312 313 313 312 311 310 310 311 311 311 311 311 312 312 313 312 312 314 315 314 313 314 313 313 312 310 308 309 312 313 313 314 315 313 313 311 311 312 312 313 312 312 312 312 312 313
310 311 311 311 312 312 312 313 313 315 315 315 316 316 316 316 315 314 313 313 314 313 312 312 312 311 313 315 315 315 315 314 315 314 314 314 314 313 312 312 312 312 312 312 312 311 310 310 310 310 311 311 311 312 313 314 315 314 313 313 314 313 313 313 314 314 311 309 310 309 310 311 312 314 314 313 313 312 312 312 312 312 313 313 313 312 312 312
313 313 313 314 314 315 314 315 316 318 319 320 320 321 320 318 316 316 315 314 313 313 313 312 312 313 315 315 315 315 314 314 314 314 314 313 313 312 312 312 312 312 311 311 311 311 311 311 310 312 312 311 311 312 314 315 316 316 315 314 314 312 311 312 313 313 311 310 311 310 310 311 311 312 313 312 312 312 312 312 312 312 312 313 313 313 313 312
315 315 315 315 316 317 317 318 319 321 322 323 322 322 321 319 318 318 316 314 313 314 315 313 312 315 317 315 314 315 314 313 313 314 314 313 313 312 313 312 312 312 312 312 312 311 312 311 311 313 314 313 312 312 314 316 315 315 314 313 313 313 312 312 312 313 311 310 311 311 311 312 312 312 312 313 313 312 313 312 313 312 312 313 313 313 313 313
316 316 316 316 318 319 319 320 321 323 323 323 322 322 321 320 319 317 315 316 317 318 319 318 316 316 317 317 316 315 314 314 313 313 313 313 313 313 312 312 311 311 312 313 313 311 311 313 313 314 315 315 314 313 314 315 313 312 312 313 313 313 313 313 313 312 311 309 310 311 311 312 312 312 312 313 313 313 313 313 313 313 313 313 313 314 314 313
318 319 319 319 320 321 322 322 323 323 323 322 322 322 322 320 319 318 317 319 321 321 321 321 320 318 319 319 317 315 313 313 313 313 313 313 313 313 312 311 312 312 312 313 312 309 310 313 314 314 315 314 313 313 312 312 311 311 312 312 313 313 313 313 313 312 310 309 311 311 311 312 312 312 312 313 312 312 313 314 313 313 313 314 314 314 313 312
321 322 322 323 323 323 324 324 324 324 322 322 321 322 322 320 319 318 316 317 320 321 321 321 320 319 321 320 317 315 313 312 312 312 312 312 312 313 312 311 312 313 311 310 312 311 311 313 313 314 314 311 310 309 310 310 311 312 312 312 313 313 313 313 312 311 309 308 311 311 311 311 311 311 312 313 313 313 313 313 313 313 314 314 314 313 311 312
323 324 324 324 325 325 325 324 324 323 322 321 321 322 322 321 320 317 315 313 316 320 320 319 318 317 319 319 317 315 312 312 312 312 312 312 312 312 312 311 311 312 311 311 313 314 314 313 313 314 313 310 310 309 308 310 311 311 312 313 313 313 313 313 311 309 308 308 310 310 310 311 312 313 313 313 313 313 313 313 313 314 314 313 312 311 311 313
324 324 324 324 325 325 324 323 322 322 321 321 321 322 321 321 320 316 314 313 314 317 317 315 315 315 316 314 314 314 312 312 312 311 312 312 311 311 312 312 311 311 311 312 313 315 315 312 310 311 311 310 311 310 309 311 312 313 313 313 313 314 313 313 312 310 310 310 309 309 312 314 315 315 315 314 312 312 313 313 314 314 313 312 311 311 312 312
324 324 324 324 324 324 324 322 321 321 320 320 321 321 321 320 319 315 313 314 315 316 315 313 312 312 312 311 311 311 311 311 311 311 311 311 312 311 311 311 311 312 313 312 312 313 314 311 309 310 310 309 311 311 311 312 312 314 314 313 312 312 312 312 313 311 311 313 310 310 314 316 315 315 315 315 314 315 315 314 314 314 312 311 311 311 311 311
324 324 324 323 323 323 322 321 320 319 319 320 320 320 321 320 317 314 313 316 319 318 314 312 311 311 310 310 310 310 311 311 310 310 310 311 311 311 311 310 309 311 311 311 311 311 311 309 308 311 311 311 310 310 311 312 312 313 314 313 312 311 312 312 312 312 312 314 310 309 313 315 315 315 315 315 315 315 317 316 315 314 312 311 311 310 310 310
325 325 324 323 322 321 321 320 319 318 319 320 320 319 320 319 317 314 314 319 322 317 314 312 311 311 310 309 309 310 312 312 309 310 310 311 311 310 311 310 309 309 308 309 312 311 310 309 308 310 311 311 310 311 312 311 311 314 315 314 312 311 312 312 311 311 312 312 310 310 311 313 315 315 314 314 315 315 317 317 316 314 311 310 310 309 310 310
325 325 325 324 322 320 320 319 317 318 319 320 320 320 320 319 316 314 317 325 324 316 312 311 310 311 309 309 309 309 310 309 310 311 309 311 311 309 310 310 310 310 308 309 314 311 309 311 311 310 311 311 311 313 313 311 311 313 311 309 310 310 311 311 311 311 310 310 312 312 311 314 316 315 313 313 314 316 317 316 315 313 311 310 309 308 308 308
324 324 323 322 321 320 318 318 317 318 319 319 320 321 321 319 316 315 319 324 321 314 312 311 311 310 309 309 309 308 308 309 310 310 309 311 311 309 310 309 308 310 308 308 313 312 309 309 309 310 312 312 312 311 310 311 312 310 308 308 309 309 309 309 310 311 310 311 314 313 312 315 318 316 314 313 314 316 317 315 312 310 310 309 309 308 306 306
322 322 322 321 320 319 318 318 318 318 319 319 320 321 321 319 317 318 321 322 319 315 312 311 311 310 309 310 310 308 308 309 309 309 309 310 310 309 309 308 307 309 309 308 310 311 307 305 306 309 311 310 310 307 305 309 309 307 309 311 311 310 309 309 309 310 311 315 316 314 313 315 317 317 316 315 314 314 314 314 312 309 308 308 307 306 305 304
320 320 320 319 319 319 318 318 318 318 318 319 319 319 320 320 319 321 322 319 317 316 312 311 311 309 310 312 313 311 308 308 308 309 310 309 310 310 309 309 309 309 310 310 310 310 308 306 308 309 308 307 309 308 305 306 306 307 310 310 311 312 310 310 310 310 314 318 316 312 313 315 316 317 315 314 314 312 312 313 312 309 307 306 305 304 303 302
319 319 319 318 318 318 318 318 318 318 318 318 318 318 319 321 321 321 321 318 318 318 314 313 311 310 310 312 315 313 310 310 308 308 311 311 311 311 311 312 312 313 314 312 313 313 312 311 310 309 307 307 310 310 308 307 307 308 309 310 312 314 315 316 315 313 316 317 312 309 312 313 315 316 314 314 315 312 310 310 310 308 306 305 303 302 301 301
318 317 318 317 317 317 317 317 317 317 317 317 317 318 320 321 321 321 320 319 319 317 314 313 312 311 312 314 317 314 312 314 310 308 311 310 310 312 313 313 313 315 315 312 313 315 316 315 310 309 309 308 309 310 311 311 309 309 310 311 314 317 319 321 319 316 318 317 309 307 311 313 314 315 314 315 315 311 308 308 307 306 305 303 302 300 300 301
316 316 316 316 316 316 316 316 316 315 316 317 317 319 321 321 321 320 321 321 319 316 315 315 314 314 313 316 318 314 314 317 311 308 310 310 311 314 314 311 309 313 313 311 313 314 318 319 313 312 313 310 309 311 315 315 310 309 311 312 314 317 321 322 321 320 321 320 312 308 312 315 316 315 312 312 312 308 306 306 304 304 303 302 300 299 299 299
315 315 315 315 315 315 315 315 315 315 316 317 319 320 321 321 321 320 320 320 320 319 317 316 317 318 316 316 316 313 315 317 313 311 312 312 314 317 318 314 309 311 313 314 316 315 316 320 317 313 311 309 310 311 314 317 314 311 311 311 312 317 321 320 319 320 319 319 316 313 314 316 315 314 312 312 310 307 306 305 303 303 301 300 299 297 297 297
314 314 314 314 314 314 314 315 315 315 317 318 319 320 320 320 319 320 320 317 318 320 319 318 319 318 318 318 316 313 314 316 315 314 314 314 316 317 319 318 311 310 313 316 320 319 318 320 318 311 307 308 310 310 311 315 316 311 309 312 313 315 319 317 317 319 317 317 318 317 316 316 316 316 314 312 310 307 305 303 302 301 300 299 298 296 295 296
313 313 313 313 313 313 313 313 314 315 317 319 319 319 319 318 318 319 319 316 315 317 318 318 318 317 317 317 317 315 314 315 315 315 316 315 314 315 316 316 312 310 313 316 319 321 319 320 318 313 312 310 306 307 309 310 311 311 311 314 314 313 314 313 314 317 317 317 319 318 318 318 319 318 313 312 311 309 305 302 300 299 298 298 296 295 294 295
311 310 310 310 310 310 310 311 313 314 315 317 317 317 317 317 316 317 317 315 315 316 317 317 317 317 317 316 317 315 314 315 315 315 317 316 314 315 315 315 314 311 312 314 316 318 317 319 319 317 316 312 304 306 311 308 308 310 311 312 313 313 314 313 314 315 317 319 319 318 318 318 318 318 314 313 312 309 305 301 299 297 297 296 295 294 294 295
307 307 307 308 308 307 307 310 313 313 314 315 315 315 315 315 314 314 315 315 315 316 316 316 316 317 317 316 317 317 315 316 316 315 316 316 315 315 314 315 314 311 309 311 314 315 314 317 319 316 314 311 307 309 312 311 309 308 308 309 310 312 314 314 313 315 317 319 319 320 320 319 318 317 315 312 309 307 304 300 297 296 296 295 294 294 293 293
305 306 307 308 309 307 306 310 314 315 315 315 314 314 314 314 314 313 314 314 315 316 316 316 316 316 317 317 317 317 316 316 316 316 316 316 316 315 313 313 313 310 308 309 311 313 312 314 317 316 312 312 312 311 312 314 312 309 309 310 309 310 313 313 313 314 316 317 319 320 320 320 317 312 310 308 305 303 302 299 297 297 296 295 294 293 293 293
305 307 308 308 310 308 307 311 314 315 315 315 315 314 313 313 314 314 314 314 314 315 315 316 317 316 317 317 316 317 318 317 316 317 317 316 315 315 312 311 312 311 310 310 311 311 312 313 314 315 314 313 315 314 312 313 314 312 312 311 312 313 313 313 314 315 315 315 317 317 318 320 315 308 305 303 301 301 299 298 298 297 296 295 294 293 293 292
305 307 308 309 310 309 309 311 313 313 314 314 314 314 314 314 314 314 314 314 314 315 315 315 316 316 316 316 315 316 317 317 316 316 316 315 315 314 310 307 309 311 312 313 312 309 308 309 311 313 314 314 316 314 311 311 312 314 314 314 316 317 314 314 316 317 316 315 316 316 318 318 310 303 302 301 300 300 299 298 298 296 295 295 294 293 293 293
305 307 309 310 310 309 310 312 313 313 314 314 314 314 314 314 314 313 313 313 314 315 315 315 315 314 315 315 315 315 316 315 315 315 315 316 315 311 307 306 308 309 311 313 313 309 307 310 312 313 314 315 315 313 310 310 311 313 314 313 315 316 315 315 314 314 315 316 317 317 318 318 308 300 300 299 298 298 297 297 297 296 295 294 293 293 293 294
304 305 309 311 310 310 311 312 313 314 313 313 313 313 313 314 313 313 313 313 314 314 314 315 314 314 314 314 313 314 314 314 314 313 314 316 314 307 305 307 308 309 310 312 312 310 310 312 313 313 314 315 315 314 313 312 311 311 312 312 312 313 313 313 312 311 312 315 316 316 317 318 309 299 298 299 297 297 296 295 295 295 294 293 293 292 292 293
301 303 307 311 311 311 311 311 312 313 312 312 312 312 313 313 312 312 312 312 313 313 313 313 313 312 313 312 312 313 313 313 313 313 312 313 312 306 304 306 307 307 308 307 306 308 310 311 312 313 314 314 315 315 314 312 310 310 310 310 310 310 310 311 311 312 313 314 315 314 314 315 309 301 300 300 297 296 295 294 294 294 294 293 293 293 292 292
298 301 304 307 309 308 308 308 309 311 312 312 312 311 311 311 310 310 311 312 312 312 312 312 311 311 311 312 312 312 312 312 312 312 311 312 312 307 303 303 304 304 305 304 304 306 308 310 311 312 312 312 313 313 311 308 308 309 310 310 310 308 308 308 309 311 312 311 312 312 311 312 309 307 306 305 300 296 295 294 294 294 293 293 293 292 291 291
298 302 303 303 305 306 306 306 307 309 310 310 311 311 310 310 310 310 311 311 310 310 311 311 310 311 311 311 311 311 311 311 310 310 310 310 310 307 303 302 302 301 303 303 303 305 307 308 309 311 311 311 311 310 307 305 305 307 308 308 307 307 306 306 307 308 308 308 309 309 309 309 308 307 308 306 301 297 295 295 294 294 293 293 292 292 291 290
298 300 299 300 303 305 306 306 305 306 307 307 308 309 309 310 309 309 310 309 308 308 310 310 309 309 308 308 309 310 310 309 308 309 310 309 308 306 304 303 300 300 302 302 302 304 306 306 307 308 308 308 307 306 305 304 304 304 304 304 304 304 304 304 304 305 305 306 306 306 306 306 306 306 306 301 297 295 295 294 294 294 293 293 293 292 292 291
296 296 297 299 300 301 302 302 302 303 305 305 306 307 308 309 308 308 308 307 307 307 308 308 307 305 305 305 306 307 307 307 307 307 308 307 305 304 304 303 301 299 300 301 302 303 304 305 305 305 305 305 304 304 304 303 303 302 302 302 302 302 302 302 302 302 302 303 303 303 303 303 303 304 301 297 294 294 294 294 294 294 293 293 293 293 293 292
295 296 297 298 298 298 298 299 299 301 302 303 304 305 306 306 307 306 306 305 306 306 306 306 305 303 303 305 305 305 305 306 306 305 305 305 304 302 302 303 301 300 299 300 301 302 303 304 303 302 302 303 303 303 303 302 301 301 301 301 300 300 300 300 300 301 300 301 301 300 301 302 301 298 296 295 294 294 293 293 293 293 293 293 293 293 293 293
295 296 296 296 297 297 297 297 298 300 300 301 302 303 304 304 303 304 304 302 302 304 304 303 301 300 301 302 302 303 303 303 303 302 301 301 302 301 300 300 300 299 299 299 300 301 301 302 301 301 302 302 302 302 301 300 299 299 299 299 299 299 299 299 300 300 300 300 300 300 301 301 298 294 293 294 293 293 293 293 293 293 293 293 293 293 293 293
294 294 295 295 296 296 296 296 297 298 298 299 300 301 301 300 299 300 302 299 297 298 299 298 298 299 299 300 301 301 301 300 299 298 297 297 297 297 297 297 297 297 298 298 299 299 300 300 300 301 301 301 301 300 297 297 297 297 298 298 298 298 298 299 299 299 299 299 299 299 299 298 296 294 293 293 293 293 292 292 292 292 292 292 292 292 292 292
Wind_Speed
5 5 5 4 4 4 3 3 2 2 2 1 1 1 1 1 2 2 3 3 4 5 6 6 7 8 8 9 10 10 12 13 14 15 12 4 1 1 1 3 5 7 8 9 10 10 9 8 8 8 8 7 5 5 6 5 7 6 3 3 4 4 4 4 6 6 0 4 4 3 6 7 7 5 7 9 11 14 18 24 25 24 26 28 28 26 25 24
5 5 5 5 5 4 4 4 4 4 3 3 3 3 3 3 3 3 4 5 5 6 6 7 8 9 9 10 11 12 14 14 17 18 8 1 2 3 2 2 4 7 9 9 10 10 10 9 9 9 9 7 5 5 5 5 7 5 2 3 5 4 2 4 7 6 4 7 7 5 5 7 8 6 6 8 11 10 14 22 21 22 28 28 26 22 20 21
6 6 6 5 5 5 5 5 5 5 5 5 5 5 5 5 6 5 6 6 7 7 8 9 9 10 11 11 12 13 14 16 20 15 5 5 6 5 4 3 3 5 8 9 10 11 10 8 8 9 10 7 5 5 5 5 7 5 4 5 7 6 3 6 10 9 10 11 9 9 7 8 11 9 6 8 11 11 13 20 17 17 23 25 22 21 20 20
7 7 7 7 6 6 6 6 7 7 7 7 7 7 8 8 8 8 8 8 9 9 9 10 10 11 12 13 13 13 15 16 14 6 11 3 9 9 6 4 4 4 8 10 11 12 11 9 8 9 10 6 4 5 6 8 7 4 6 7 5 3 4 8 13 14 14 14 11 9 9 10 12 10 9 8 8 10 15 21 22 21 25 25 22 23 24 24
8 9 8 8 8 8 8 8 8 8 9 9 9 9 10 10 10 10 10 11 11 11 11 11 12 13 13 14 14 14 14 9 2 4 9 6 12 13 9 6 4 3 5 9 12 13 12 11 9 9 9 5 4 4 5 11 9 4 8 13 8 3 5 8 10 13 13 13 11 7 8 11 11 11 13 11 9 14 20 24 26 27 30 31 27 27 29 28
9 10 10 10 10 9 9 9 9 10 10 10 10 11 11 11 12 12 12 12 12 13 13 13 13 14 14 15 15 14 9 5 4 4 7 10 14 14 10 8 5 3 3 7 10 13 13 12 11 9 7 5 6 7 5 10 12 8 8 12 12 9 10 10 7 10 11 9 8 8 11 13 11 13 15 16 20 27 32 33 35 34 34 36 34 32 32 30
10 10 10 11 11 11 11 11 11 11 11 11 12 12 12 12 13 13 13 13 14 15 14 15 15 15 16 16 16 14 9 12 14 13 13 14 14 12 9 8 7 5 4 7 9 12 14 14 13 9 6 5 6 9 6 8 11 9 8 8 10 12 14 15 10 12 14 12 13 14 16 18 15 13 12 16 26 37 40 40 40 40 37 36 35 32 31 28
11 11 11 12 12 12 12 12 12 12 13 13 13 13 14 14 14 15 15 15 15 16 16 16 16 16 17 17 17 12 11 18 18 15 14 10 9 8 8 8 8 8 7 8 8 11 13 14 15 10 8 7 6 6 5 6 8 10 12 8 7 10 14 15 13 15 17 18 20 17 18 26 23 14 15 24 35 43 42 41 39 36 34 32 31 29 27 27
12 12 12 13 13 13 13 13 14 14 14 15 15 16 16 16 16 17 17 17 17 17 18 17 18 18 17 18 16 10 15 20 15 11 9 7 8 9 11 11 10 10 10 10 9 11 12 13 16 13 9 6 6 6 5 6 6 8 12 9 8 11 13 14 15 15 16 19 18 13 18 28 22 13 21 32 37 36 31 30 29 28 29 28 28 28 27 28
13 13 14 14 14 14 14 15 15 16 16 16 17 17 18 18 18 18 18 18 18 18 18 18 18 18 18 19 13 9 16 16 10 9 9 10 13 13 14 14 13 13 12 11 11 13 13 13 14 14 11 6 6 6 5 7 4 2 6 9 13 16 16 15 16 16 16 20 19 15 18 25 15 5 17 22 18 19 20 22 25 25 28 28 28 29 29 29
15 15 15 15 15 15 16 16 16 17 17 18 18 19 19 19 19 19 19 19 19 19 18 18 18 18 19 19 14 13 19 17 13 15 15 16 18 17 17 15 15 14 13 12 12 13 14 15 13 10 8 5 5 4 6 10 7 5 6 10 14 15 18 17 17 18 15 14 16 16 16 22 12 5 21 27 17 19 22 24 28 28 29 29 29 28 27 28
16 15 15 16 16 16 16 16 17 17 17 18 19 19 20 20 20 20 20 19 19 19 19 18 18 18 18 20 23 22 22 20 18 18 17 19 20 20 19 17 16 14 13 12 11 12 13 15 14 10 7 4 3 3 4 7 5 6 6 9 13 12 18 17 15 15 12 7 8 11 10 15 11 14 31 34 24 23 21 24 28 28 29 28 26 26 26 29
15 15 14 15 15 15 15 15 15 15 16 16 17 18 18 19 18 18 18 18 18 18 18 17 17 19 16 18 24 24 21 19 17 17 17 19 20 21 21 18 17 15 14 13 12 12 12 14 13 12 9 5 3 3 2 1 1 6 3 4 9 10 12 9 7 6 6 6 8 10 6 10 11 18 27 23 20 20 17 21 27 27 28 27 26 28 31 35
13 13 12 12 12 12 12 12 12 12 13 13 14 15 16 16 16 16 16 16 16 15 15 15 16 16 15 18 24 24 21 20 18 17 18 18 20 22 21 19 17 16 15 14 14 13 12 13 13 11 10 9 6 5 5 1 1 5 2 2 5 7 6 1 5 4 4 5 12 11 8 10 10 16 18 14 16 17 15 20 22 23 24 26 31 34 38 40
10 9 9 9 9 9 9 8 8 8 9 11 11 13 14 14 14 15 14 14 14 14 14 14 14 12 12 18 23 21 19 17 15 15 15 16 19 21 20 18 16 15 14 14 14 13 11 11 12 9 6 9 9 6 5 2 2 3 4 5 4 5 8 6 3 7 8 4 12 11 7 8 11 15 14 13 15 13 14 20 22 23 24 28 32 35 41 42
7 7 6 6 6 6 6 6 5 5 7 8 9 11 12 13 14 14 14 13 12 12 12 11 12 10 7 13 18 18 18 15 13 14 14 15 16 18 18 15 13 12 12 13 13 12 10 9 10 8 4 6 6 5 5 4 4 4 5 8 6 7 7 7 8 8 9 3 7 12 9 7 8 12 14 16 19 17 16 23 29 30 28 29 31 32 39 42
5 4 4 4 3 4 4 4 3 3 5 7 8 10 11 12 12 12 12 11 10 9 8 8 8 8 9 13 17 17 15 13 12 12 12 13 14 15 16 13 11 11 11 11 10 9 9 9 7 5 5 4 2 3 4 5 6 5 6 7 7 9 8 6 9 5 4 6 8 12 12 12 13 15 21 22 24 25 24 29 33 31 30 29 28 32 36 36
3 3 3 2 2 2 2 2 3 3 5 8 9 10 11 11 10 11 10 8 6 3 3 5 5 4 8 13 14 12 10 11 11 10 10 11 12 13 13 12 11 10 10 8 8 10 9 8 5 4 4 5 4 5 6 8 10 8 5 6 5 7 9 9 10 5 2 7 9 9 13 16 16 17 23 28 27 25 27 31 31 29 32 29 27 34 34 24
4 4 3 3 2 1 2 3 4 5 6 7 9 11 10 9 9 9 5 2 2 2 3 5 8 4 6 9 13 13 15 15 14 14 14 13 11 11 11 10 10 10 10 6 7 11 10 6 4 4 6 9 10 11 13 14 11 7 5 6 8 8 9 11 13 9 6 11 12 13 18 17 15 15 16 23 25 24 29 33 30 27 27 26 29 33 25 14
6 5 5 3 2 2 3 4 5 7 8 8 10 11 8 7 6 3 3 7 10 11 12 12 14 17 17 19 21 20 20 20 17 16 15 12 9 9 10 10 10 10 7 5 6 8 9 6 6 8 11 13 14 15 17 13 6 5 5 8 10 10 11 12 14 9 2 7 11 13 19 19 17 16 14 20 25 25 30 30 26 23 23 26 30 24 11 10
6 6 5 4 3 4 4 4 6 8 10 10 11 9 5 5 4 3 8 14 16 16 18 21 22 24 25 26 24 20 16 15 17 16 13 10 8 8 10 11 9 7 5 4 4 4 6 8 9 14 14 8 6 7 9 9 8 9 8 10 10 9 13 12 13 11 1 4 9 10 18 18 16 18 18 22 23 22 26 25 22 24 26 26 20 10 7 13
7 7 7 7 5 6 6 6 6 8 10 11 11 8 6 7 6 7 9 11 17 20 20 23 25 28 29 29 30 27 17 11 13 12 10 9 11 8 8 11 7 4 4 5 3 2 6 8 12 16 9 2 2 1 2 7 10 11 8 8 9 7 11 11 9 8 1 2 8 10 16 16 16 21 21 20 19 21 25 23 24 29 28 19 8 8 12 15
8 8 9 9 8 8 8 7 7 8 9 9 9 8 8 9 9 11 9 6 13 19 20 21 21 24 26 26 27 25 17 13 11 10 9 9 11 10 8 9 7 3 5 8 8 6 5 6 11 16 7 2 5 2 2 7 7 9 8 8 9 6 8 8 4 1 1 5 9 13 15 13 14 17 12 11 12 17 22 23 29 29 18 9 8 11 12 11
9 9 11 11 10 10 9 8 9 8 8 7 7 7 8 9 10 13 9 5 7 11 16 14 10 13 15 13 13 12 12 12 8 7 11 11 12 9 8 8 6 4 7 12 12 12 8 1 2 8 7 8 11 6 5 8 8 9 9 8 11 11 11 12 6 4 6 7 5 10 13 7 5 3 2 2 4 9 19 23 20 10 8 8 7 8 7 8
10 11 12 13 12 11 10 10 9 7 6 6 6 6 8 10 11 13 8 4 4 5 8 4 2 3 4 3 3 5 7 8 8 7 9 13 13 7 4 6 5 5 10 11 11 12 8 1 2 3 4 7 9 7 8 10 9 8 7 10 16 15 14 15 10 7 7 5 1 7 10 3 1 1 5 7 4 9 16 14 4 10 14 10 9 10 11 13
11 12 13 13 11 9 9 9 7 5 5 5 5 6 8 8 10 12 7 2 2 2 2 1 1 1 1 2 1 5 5 3 5 8 9 12 13 7 2 4 3 3 5 5 5 5 4 1 1 2 3 4 5 7 10 10 8 8 4 8 13 13 12 12 9 5 5 4 1 3 6 6 4 4 6 8 7 14 15 7 2 10 11 9 11 14 17 19
13 12 12 12 10 8 8 7 5 4 4 5 6 6 6 7 9 10 5 3 3 1 2 1 1 2 2 0 4 5 3 1 1 4 9 12 11 8 5 4 2 1 3 2 3 2 2 2 1 2 4 4 5 8 8 10 8 6 1 2 6 7 8 6 5 5 4 5 2 3 5 8 7 3 4 6 9 15 13 6 4 11 13 11 14 17 19 20
14 13 11 11 10 8 7 7 7 5 4 5 6 6 5 6 8 7 2 4 2 2 2 1 2 3 2 5 6 3 2 1 1 2 7 11 10 6 5 5 4 3 4 4 5 1 2 2 3 5 5 5 8 6 5 11 8 2 4 2 1 1 3 3 4 5 3 5 4 5 5 6 7 2 2 4 8 11 7 7 9 14 13 9 15 19 19 20
15 13 12 11 10 8 9 9 8 6 5 6 6 6 5 5 5 3 1 3 1 2 1 1 2 2 2 6 4 1 3 3 2 2 5 7 8 5 2 2 3 2 3 5 7 3 1 1 3 6 5 6 5 1 1 8 5 1 4 3 3 2 1 2 3 3 2 6 5 6 8 6 8 1 3 2 3 5 5 8 12 15 14 11 15 20 21 21
14 13 12 11 10 10 11 10 8 7 6 7 7 6 6 3 1 1 4 3 1 1 2 2 2 0 1 4 1 1 0 2 3 5 4 3 6 5 1 1 1 2 3 4 7 5 1 2 0 4 6 2 3 5 3 1 1 2 3 0 0 2 1 1 2 1 3 7 4 10 13 8 6 1 3 0 1 2 3 6 11 13 14 16 18 19 20 21
15 14 14 13 12 12 12 12 10 8 7 8 7 5 4 2 0 4 5 2 2 1 3 2 1 1 1 2 1 1 1 1 3 5 3 2 4 4 1 2 2 2 3 3 5 3 2 3 2 4 5 2 5 3 2 3 2 1 1 2 3 2 1 2 2 1 5 6 1 5 7 9 8 2 2 3 3 2 2 3 7 8 11 16 18 20 22 24
16 16 15 15 15 14 14 13 11 9 8 7 5 3 2 1 3 5 2 2 2 2 3 1 1 1 2 0 1 1 1 1 3 3 2 2 2 4 4 4 3 2 3 2 1 2 3 5 3 1 4 6 5 2 2 3 3 3 2 2 4 3 2 3 2 2 5 4 2 2 1 5 9 5 5 10 6 4 3 4 7 10 13 17 18 20 25 27
16 16 16 15 15 14 14 13 12 10 8 6 3 1 2 3 5 3 3 1 1 1 2 1 0 2 2 2 2 2 1 1 4 3 1 2 2 3 4 3 3 2 3 1 2 4 3 1 4 3 3 8 9 5 3 3 5 6 4 4 3 4 4 5 3 3 5 2 3 2 0 4 7 4 8 12 4 10 11 11 16 19 17 17 17 19 25 29
16 15 15 14 14 14 13 12 11 10 8 5 2 2 3 7 3 2 4 5 2 1 1 2 1 1 2 3 2 3 2 2 4 3 2 2 2 3 4 3 4 2 1 2 2 2 5 4 4 5 3 9 11 8 2 3 4 5 2 1 3 4 4 5 5 5 8 5 0 2 2 4 3 1 1 1 10 16 17 19 22 21 16 16 18 21 26 29
17 15 15 14 14 13 11 10 10 9 7 6 4 2 7 8 2 2 4 4 1 2 1 0 1 1 3 3 1 2 4 3 3 3 2 3 2 3 3 4 7 5 2 2 2 2 6 7 4 2 3 11 10 5 5 5 1 1 1 1 3 3 3 4 7 6 6 7 4 4 3 4 2 3 4 3 13 17 18 20 19 17 17 20 23 24 26 28
18 17 17 16 15 12 10 9 8 8 9 8 4 5 7 4 2 3 2 2 1 1 2 2 1 3 5 3 1 1 3 3 2 2 3 3 3 3 3 1 7 10 7 3 2 2 4 5 3 4 1 7 6 4 6 4 1 2 2 4 2 2 3 4 6 2 1 6 6 4 6 7 5 6 3 7 12 14 14 15 16 16 17 20 20 20 23 26
20 20 20 20 18 15 12 10 8 8 9 7 5 7 3 2 5 5 2 3 1 2 0 3 2 3 4 2 2 3 3 2 3 3 3 2 2 4 4 2 6 12 11 6 3 3 4 6 3 6 5 5 2 2 1 2 1 3 3 3 1 1 1 2 3 0 2 7 6 5 11 10 6 4 3 9 9 10 11 10 12 12 13 15 15 16 22 24
22 21 22 23 21 17 15 14 12 12 9 5 9 10 4 3 5 5 4 4 1 1 2 5 4 2 4 5 3 3 4 4 4 3 3 3 3 4 3 3 6 10 11 7 3 2 3 6 3 6 6 3 4 2 2 2 2 1 1 1 0 2 3 3 3 2 4 7 4 6 11 10 7 6 4 6 4 8 8 6 9 10 11 12 11 14 19 21
18 16 15 17 18 18 18 17 17 17 11 6 10 10 5 5 7 8 9 5 1 2 4 8 6 4 5 5 2 1 4 4 3 1 2 3 4 4 2 2 3 5 5 4 3 1 1 5 4 1 0 2 4 3 5 5 3 1 1 1 0 2 4 3 2 2 4 7 6 6 8 6 4 3 3 5 6 6 5 6 8 8 9 9 9 11 14 16
12 8 7 8 12 17 20 19 20 18 11 7 9 6 3 3 5 10 13 9 4 3 4 6 6 7 6 5 4 2 2 3 3 4 4 3 5 4 1 2 1 1 1 1 3 2 1 5 5 0 2 1 4 5 7 8 6 4 4 5 4 2 2 2 2 2 3 5 6 6 6 4 1 2 5 7 6 5 6 7 6 6 8 9 9 11 13 15
11 5 4 8 10 16 23 20 16 13 7 7 9 6 4 3 2 4 7 9 8 5 3 3 5 6 5 4 5 2 1 3 4 5 5 5 9 6 3 5 3 2 2 0 1 2 1 3 5 3 2 5 5 3 4 6 4 3 4 5 5 4 2 4 5 3 3 4 4 5 6 2 2 3 6 7 5 6 7 7 6 7 8 8 10 13 14 16
12 3 5 11 10 18 25 15 9 9 7 8 8 5 5 4 3 2 2 4 6 4 3 3 4 6 6 6 7 4 3 5 5 6 6 6 10 8 4 8 6 4 2 1 1 1 0 1 4 5 6 9 5 2 1 2 2 1 2 2 2 1 2 6 7 3 3 4 4 6 7 2 2 3 5 7 6 7 7 7 8 6 6 7 10 12 13 14
11 5 9 13 13 21 22 9 7 9 6 7 7 7 7 4 3 3 1 2 3 2 3 3 3 6 7 6 7 6 5 5 6 8 6 4 5 3 7 9 5 3 2 1 1 0 2 2 4 5 6 8 6 3 3 2 1 1 4 3 3 4 4 6 5 2 3 5 4 6 6 2 1 0 5 8 8 8 6 5 6 6 4 5 7 11 12 11
10 8 11 15 19 24 17 5 6 9 7 8 8 10 11 6 4 4 3 3 4 2 2 2 3 6 6 2 3 5 4 4 5 6 4 2 1 2 5 6 2 0 0 0 1 1 1 2 2 4 5 5 5 3 1 1 1 1 2 1 2 4 5 6 4 2 4 6 7 8 7 1 3 4 5 8 8 7 6 4 5 6 5 4 5 9 10 10
8 7 9 15 22 23 12 4 4 7 9 10 10 12 11 6 4 7 7 7 8 6 4 3 3 5 4 1 1 3 4 4 5 2 2 1 1 2 4 6 5 2 2 3 2 0 2 1 1 4 6 5 5 5 2 1 1 2 2 3 3 3 3 5 4 5 5 5 6 8 6 2 2 5 6 7 8 7 6 5 4 5 4 4 5 6 8 9
6 3 4 9 15 14 9 4 3 5 6 8 9 10 13 11 6 7 9 10 11 11 9 6 3 4 3 3 3 5 6 6 5 3 3 4 1 2 3 5 6 4 3 3 3 1 1 2 4 6 8 8 8 7 2 1 1 4 4 4 5 2 2 4 4 5 4 3 5 6 7 7 4 5 8 5 7 7 7 6 5 4 4 2 2 3 5 7
3 1 3 5 7 8 6 4 4 3 2 5 5 4 9 12 6 4 7 6 3 6 7 4 3 4 4 3 4 6 5 4 4 4 6 5 1 1 2 3 6 4 2 1 2 1 2 4 7 9 11 10 10 7 2 0 3 5 5 7 9 7 6 7 8 7 6 6 7 6 7 9 9 11 14 7 3 5 5 6 5 5 4 3 3 3 3 5
3 1 4 6 4 3 4 4 4 4 3 2 3 2 4 7 6 4 4 1 0 1 2 3 1 1 1 1 1 2 2 2 2 3 3 2 1 2 2 2 4 5 2 1 1 2 3 6 7 8 10 9 7 6 4 3 5 6 6 9 11 13 13 12 12 12 10 10 10 10 12 15 15 15 12 4 4 3 3 2 3 4 5 6 6 7 7 7
4 2 4 6 3 1 1 2 3 3 5 4 2 4 5 7 10 7 1 2 2 1 1 4 2 3 3 2 2 2 4 4 4 3 1 1 1 0 2 2 2 5 5 2 2 1 3 4 4 4 8 8 7 8 7 6 7 9 10 12 13 16 18 16 15 15 15 15 15 16 20 21 16 8 1 5 4 2 1 1 3 5 7 8 8 10 10 9
4 4 4 5 3 3 3 2 3 1 4 4 5 6 5 8 13 9 1 1 5 4 2 4 2 2 2 2 2 4 5 2 6 6 1 1 1 1 1 2 1 3 4 1 1 2 3 3 1 0 5 7 8 10 10 8 9 11 12 13 16 18 18 16 16 15 15 16 18 19 22 18 6 3 5 4 2 1 1 4 5 6 7 8 10 12 12 12
6 6 6 5 3 3 4 2 2 2 3 4 6 5 5 8 8 4 0 1 2 4 3 2 2 3 3 2 3 4 4 3 4 4 3 2 3 2 1 0 1 2 3 1 1 2 4 3 1 2 5 6 7 10 10 8 9 12 14 17 19 18 16 15 14 12 12 13 14 15 15 8 1 5 3 2 2 2 5 6 6 6 7 8 10 13 14 14
8 7 7 5 2 3 4 3 3 4 3 2 4 2 2 3 0 1 4 1 5 4 4 6 4 2 2 4 3 3 5 5 4 2 1 3 6 6 6 7 6 5 2 1 1 2 3 3 3 4 5 6 9 8 5 5 9 11 11 13 16 17 16 16 14 14 15 13 10 9 6 1 4 4 1 1 2 4 6 7 7 8 8 9 12 15 17 18
Wind_Direction
342 344 345 349 348 350 348 348 346 342 344 334 340 333 328 329 329 332 333 337 337 338 337 337 338 336 336 334 333 331 328 325 320 315 314 320 6 348 291 260 247 239 237 232 225 221 220 217 212 209 204 199 207 204 195 191 177 181 208 244 244 250 228 195 209 204 261 292 261 212 206 237 266 278 286 290 271 262 273 274 267 264 266 269 272 278 282 286
322 325 326 328 326 326 326 324 320 317 310 307 303 298 298 296 298 300 306 311 313 318 319 322 324 324 325 325 326 325 324 323 314 308 292 178 23 2 347 306 261 240 234 232 221 217 223 223 218 211 201 201 215 205 203 196 186 202 233 239 245 248 210 190 222 214 217 270 286 273 242 244 267 281 282 278 270 263 272 275 266 260 270 275 277 279 281 283
305 307 307 307 307 307 305 305 305 303 301 300 296 296 293 292 294 292 296 298 299 304 306 310 312 314 316 317 320 320 325 323 312 299 202 129 24 5 338 312 282 249 234 230 216 214 223 225 222 212 203 209 218 202 203 205 201 214 220 243 250 242 234 223 234 231 236 266 286 279 272 263 266 268 259 264 273 268 261 269 264 254 269 279 283 285 281 279
294 295 296 296 295 294 293 293 293 293 294 294 292 292 291 292 292 291 294 294 294 297 299 302 303 306 307 311 314 316 325 320 306 259 179 178 353 344 324 295 279 252 234 231 218 218 222 224 223 209 208 218 212 209 217 211 201 185 203 245 258 224 253 237 237 245 248 262 270 273 283 275 270 262 243 243 271 266 252 262 267 265 277 283 283 285 284 280
290 292 293 293 292 291 290 288 287 287 287 287 288 288 289 290 290 291 292 292 294 294 296 297 298 301 301 305 306 312 325 323 307 172 194 263 318 317 305 276 258 236 230 232 227 226 224 226 224 208 214 224 192 203 224 207 202 203 220 246 259 217 258 252 243 255 257 260 263 262 270 274 274 260 239 228 245 260 262 271 276 278 284 287 283 283 284 282
286 289 290 292 292 291 290 289 287 286 285 285 285 285 286 286 286 288 288 289 290 291 293 293 294 296 297 300 300 305 312 297 284 251 258 291 300 297 287 262 243 240 232 230 230 228 226 222 217 205 209 226 209 214 225 199 205 239 236 239 251 239 249 261 252 262 265 256 254 254 270 276 268 265 248 223 238 260 272 279 283 285 286 287 286 283 283 282
284 285 288 289 289 290 290 289 289 287 286 285 285 285 284 284 285 285 286 287 287 288 290 289 291 291 294 296 295 296 274 271 286 283 287 295 289 283 269 250 239 250 247 238 235 228 225 218 212 205 206 232 221 219 230 202 203 241 257 239 251 251 251 261 263 264 268 261 260 266 278 276 258 265 261 230 248 267 278 283 284 288 288 285 284 283 283 283
281 282 284 285 286 287 287 288 288 287 286 286 286 285 284 284 284 284 285 285 286 287 288 288 289 289 292 292 294 290 260 274 292 292 288 280 272 271 251 242 246 257 258 253 247 236 228 218 214 209 217 235 225 213 217 221 209 224 251 258 255 261 260 268 273 268 270 266 268 270 270 269 262 267 269 253 262 273 279 285 285 285 284 281 281 281 282 283
278 279 280 281 283 284 286 287 287 287 287 287 287 286 286 286 285 285 285 285 285 286 287 288 288 289 290 290 292 279 267 285 297 289 279 262 264 266 255 254 258 261 258 254 248 239 229 222 223 221 232 244 236 232 196 221 226 213 244 270 272 275 277 279 279 271 269 266 262 257 259 266 269 275 273 263 267 275 277 282 283 279 278 278 281 284 284 284
278 279 280 281 282 283 285 285 286 288 289 289 289 288 288 287 287 287 287 287 286 286 287 286 286 288 287 287 284 267 277 290 291 281 279 273 272 267 264 265 265 263 257 255 248 241 237 239 240 232 242 253 242 236 188 214 253 259 273 288 280 279 281 277 274 266 262 264 249 234 256 266 268 272 272 267 269 276 273 276 281 278 278 281 284 288 288 287
277 279 281 282 283 284 285 286 287 288 289 289 290 290 289 289 290 289 289 288 286 286 285 284 285 284 283 281 263 256 280 286 283 285 282 278 275 269 267 263 263 260 255 258 255 251 249 249 246 232 234 231 227 229 224 236 258 318 321 296 281 279 281 267 260 259 248 258 243 224 253 267 262 227 256 263 269 273 273 276 279 278 279 284 287 289 289 288
275 277 278 280 282 284 285 287 287 288 289 289 289 289 289 289 289 289 288 287 285 285 283 282 281 279 281 277 263 266 282 285 283 284 279 276 274 269 266 258 256 253 253 259 257 256 251 247 240 229 228 216 219 229 248 246 250 298 307 291 288 287 285 265 248 252 230 237 227 200 246 263 240 228 250 261 268 274 275 276 278 278 280 284 286 286 286 286
274 275 277 279 281 282 284 286 287 289 289 288 289 288 288 289 290 290 289 288 287 285 283 280 276 274 274 272 272 278 285 284 282 279 274 273 270 268 263 256 253 249 250 249 247 247 242 245 237 226 229 222 224 241 279 30 221 279 271 280 296 289 285 262 225 241 224 221 183 171 245 265 239 242 255 262 267 274 271 268 274 275 278 282 283 283 283 286
275 276 278 278 279 281 281 283 286 288 289 290 290 290 290 291 292 292 291 290 288 285 284 278 272 269 264 266 277 283 283 282 282 276 272 269 266 266 262 257 255 250 248 245 244 240 233 235 226 219 229 229 242 266 275 2 216 278 286 234 273 270 277 207 147 172 235 214 172 181 257 266 264 269 270 271 268 271 268 265 269 270 274 279 281 283 284 287
272 274 275 274 276 277 278 283 286 290 292 293 294 295 296 296 296 295 294 291 289 286 282 276 269 261 258 270 278 282 282 281 281 278 272 264 261 263 264 262 256 250 244 241 241 237 228 220 213 214 229 233 242 263 268 276 239 246 268 254 222 231 265 281 234 206 236 222 166 190 258 259 257 271 276 285 282 271 266 273 277 274 273 276 279 281 285 290
261 262 262 264 267 270 276 282 287 297 300 300 305 304 303 305 303 300 297 294 290 285 277 272 264 247 246 272 275 277 280 282 284 280 271 263 260 259 262 261 254 244 235 233 232 229 217 195 198 207 218 236 234 241 262 276 257 216 233 260 248 244 266 288 287 241 220 197 183 212 251 267 255 271 276 283 288 282 274 280 282 280 278 278 278 280 285 289
244 243 244 246 248 258 272 279 293 311 310 310 313 314 314 313 308 303 301 298 294 285 273 262 250 237 244 262 270 273 277 286 291 282 271 264 259 256 256 251 242 230 219 218 213 201 189 178 186 200 211 235 212 211 251 259 253 230 216 243 253 254 265 279 289 290 175 184 218 226 240 257 261 276 281 282 285 284 280 280 280 281 281 279 280 282 284 286
213 219 217 220 223 251 275 295 308 319 329 325 320 325 324 316 310 305 302 300 295 287 272 234 200 222 249 247 256 268 279 290 290 283 275 264 256 253 247 240 232 212 192 190 185 175 171 169 183 209 214 221 203 201 227 237 245 252 242 256 270 248 246 256 265 299 303 243 248 246 247 255 258 262 272 278 281 280 279 277 277 277 278 280 281 283 285 286
203 206 208 209 211 261 298 323 320 322 335 333 329 333 330 320 314 305 294 297 288 275 278 218 194 235 272 253 258 271 282 286 283 279 274 264 255 243 228 221 209 184 171 172 177 177 172 159 177 214 220 217 209 205 221 235 249 279 294 282 287 274 256 258 261 270 292 280 271 268 268 273 274 264 262 275 282 282 277 275 273 272 276 281 280 281 289 299
218 221 227 225 237 282 299 318 322 325 329 334 338 340 339 335 325 295 273 289 288 279 278 265 246 254 268 273 275 277 278 277 276 273 268 261 243 219 199 184 174 175 179 174 174 179 185 192 193 210 225 225 217 213 228 247 291 320 296 274 274 278 273 269 273 273 255 278 272 267 275 282 283 279 270 272 277 275 271 272 276 277 279 278 278 285 303 308
234 242 248 250 266 281 285 305 320 328 332 338 346 354 12 4 338 304 307 299 294 287 281 280 268 260 264 269 269 268 272 277 273 264 259 246 210 190 181 168 167 188 188 135 123 148 193 216 215 222 233 239 235 231 243 266 287 277 267 275 271 267 274 271 276 284 273 271 273 269 279 284 285 282 272 264 263 265 270 276 282 283 279 275 281 306 330 315
243 254 261 262 269 278 282 301 315 326 335 337 344 1 17 1 338 323 320 297 294 296 286 278 268 260 260 259 256 258 260 268 267 256 249 219 190 187 174 171 192 200 151 140 140 165 208 228 228 231 239 18 2 334 268 256 260 263 259 269 270 268 283 276 263 277 311 264 285 294 290 289 282 274 270 265 259 261 268 272 273 271 270 278 320 349 328 334
251 263 271 271 274 281 285 298 311 320 330 331 339 356 360 352 344 339 332 278 289 298 282 271 264 261 263 261 260 259 251 247 258 258 248 213 188 194 182 179 204 177 155 191 208 221 226 229 234 238 236 211 247 217 215 256 251 247 245 257 269 269 279 274 245 269 3 267 287 303 293 284 273 262 264 273 256 256 263 260 261 265 272 302 345 335 332 2
263 269 276 277 276 279 282 293 309 318 323 327 335 346 348 347 347 347 337 265 276 290 275 273 274 270 273 274 268 254 235 233 243 250 242 216 191 194 194 190 194 186 201 209 218 236 242 124 214 239 221 219 239 224 215 256 256 237 230 245 265 264 262 267 279 328 310 271 284 311 296 284 272 233 84 323 225 252 262 254 257 288 16 19 358 357 16 60
261 263 271 275 275 279 283 291 308 318 317 324 334 341 349 351 353 354 342 276 263 264 261 281 8 281 278 304 279 216 204 215 219 219 214 203 193 180 174 185 194 220 216 210 224 245 252 120 111 215 199 209 229 231 221 233 259 257 218 222 249 264 269 273 289 322 309 271 52 344 314 303 177 108 1 335 305 273 263 249 272 36 47 43 47 61 74 80
261 264 270 274 279 286 288 293 308 321 326 335 339 343 351 356 358 358 351 282 259 230 223 245 82 44 355 347 119 160 170 187 224 224 207 199 194 186 182 171 182 254 212 198 232 254 261 244 214 211 178 173 202 242 231 216 251 272 213 213 242 259 267 273 290 300 292 289 45 8 307 289 261 247 290 296 270 263 260 252 33 58 56 54 70 81 84 80
264 264 270 276 285 289 288 292 298 319 341 343 342 344 352 2 1 2 355 266 267 99 98 143 136 33 357 152 139 149 171 133 140 210 200 198 191 196 230 190 168 244 149 166 262 232 196 180 94 150 169 166 203 243 223 189 225 267 115 200 239 252 257 256 272 259 274 316 300 193 228 272 284 249 237 248 244 258 271 300 20 75 78 85 89 83 79 72
259 258 260 266 274 280 281 289 295 305 315 325 338 341 353 2 358 3 337 272 293 102 105 125 119 38 61 139 140 110 61 99 113 147 180 192 188 190 231 225 217 213 156 197 254 231 146 189 184 172 174 200 217 241 186 174 209 284 70 54 149 231 257 219 246 256 276 316 280 186 183 259 285 241 197 246 248 264 298 7 38 69 79 86 85 76 67 60
256 255 254 255 261 269 271 280 293 299 298 308 322 332 350 357 359 22 223 255 345 92 126 159 135 48 92 144 150 59 45 33 34 132 161 186 196 197 249 239 221 228 181 217 254 261 105 151 201 182 195 226 219 341 85 180 211 55 104 84 82 95 71 174 253 277 271 281 260 172 174 254 291 239 167 254 270 292 350 50 69 80 78 60 62 63 56 55
250 250 249 249 254 262 264 270 280 287 288 291 304 331 347 343 342 221 215 227 358 75 147 170 170 18 160 158 130 14 174 30 87 139 145 156 193 207 301 20 147 206 216 238 254 254 141 87 144 207 224 243 99 60 27 153 109 79 135 76 94 171 116 162 251 304 269 270 230 173 184 220 283 315 135 241 316 318 2 58 77 87 76 57 53 54 53 60
246 245 246 248 252 256 261 265 268 269 267 272 293 321 334 351 261 223 226 261 330 189 142 151 201 172 152 140 56 79 156 141 133 153 155 138 170 182 217 226 177 197 227 234 241 241 192 188 207 223 215 148 100 103 67 86 104 157 207 313 289 244 212 206 178 151 252 266 195 160 190 212 238 252 62 338 311 256 257 22 53 78 69 55 53 55 58 63
248 247 247 249 251 253 256 259 261 259 255 263 285 315 356 321 238 218 219 356 308 198 154 191 254 164 146 104 300 145 125 194 163 161 165 166 182 182 205 216 188 253 270 213 238 269 212 207 197 212 197 178 170 174 133 126 160 197 209 256 276 282 267 242 221 206 246 262 58 35 342 230 243 261 281 283 303 28 34 24 57 77 68 56 54 55 59 61
250 250 249 250 251 252 249 251 253 249 251 261 266 58 87 241 242 196 168 228 250 108 107 123 67 135 163 283 291 142 117 201 162 172 169 163 242 218 225 228 164 250 284 229 316 298 268 232 157 173 203 185 188 197 204 190 175 187 200 200 233 277 283 274 274 268 268 296 61 46 336 252 262 266 255 261 317 47 58 70 75 74 69 62 58 56 59 61
249 249 249 247 247 247 245 246 247 245 245 234 187 113 194 231 240 116 187 213 246 356 80 116 96 160 181 264 276 172 222 243 148 162 180 159 235 237 233 226 178 164 326 234 288 262 265 286 183 181 157 162 189 214 196 106 151 189 195 187 245 264 269 277 277 271 281 294 156 146 181 243 256 57 241 296 54 60 69 76 76 75 74 69 61 55 56 58
250 250 249 248 245 242 241 240 236 235 225 191 153 175 224 227 199 143 207 221 279 319 315 93 113 275 238 224 252 196 228 249 126 135 194 188 218 237 223 200 185 179 168 218 243 181 245 261 189 146 130 157 182 202 145 110 133 209 97 131 256 226 188 251 261 260 292 297 254 194 220 250 255 297 266 115 77 72 72 69 68 65 62 59 53 48 51 55
254 253 252 251 249 241 235 232 226 219 201 176 175 223 228 230 193 178 178 157 158 116 326 304 204 262 268 225 195 197 203 219 155 164 210 207 232 235 232 205 182 186 182 190 231 193 248 261 144 95 171 187 186 165 161 185 205 137 166 200 218 159 157 231 257 265 320 279 264 229 251 262 266 281 264 118 98 84 71 60 58 54 50 55 49 43 51 56
255 255 255 252 250 246 239 228 210 200 189 182 225 235 228 242 215 203 165 141 148 118 80 290 231 241 275 258 208 178 180 203 175 187 209 204 235 207 207 244 181 191 205 211 241 235 255 275 181 148 211 224 186 133 180 239 153 133 190 206 146 65 119 218 250 207 210 252 263 256 264 270 266 267 108 109 101 86 79 70 66 58 53 58 50 45 54 59
254 255 257 255 251 244 233 216 198 190 181 193 244 244 249 243 212 197 181 173 197 146 197 249 239 220 254 258 257 157 178 203 169 184 213 202 220 172 172 242 185 195 219 217 240 281 246 272 248 178 206 182 120 192 239 204 184 199 267 250 92 249 230 189 203 216 223 243 250 242 259 268 258 241 165 126 87 73 82 79 69 60 56 59 55 54 58 61
249 247 254 254 241 227 217 204 193 190 186 202 235 235 235 243 238 235 226 213 187 171 219 242 233 234 244 239 251 149 191 208 159 192 225 203 230 193 159 275 200 202 238 213 225 286 183 258 271 149 196 102 117 202 217 195 175 99 299 282 207 257 253 211 181 196 223 247 253 235 243 253 254 244 165 108 70 64 72 68 63 59 61 64 62 60 57 58
224 218 234 227 213 208 201 190 186 188 192 214 227 223 221 250 251 238 230 224 213 196 228 239 220 233 250 238 241 238 215 218 203 236 239 222 257 259 65 4 337 27 335 244 246 258 180 243 249 338 30 203 191 200 205 207 200 184 209 222 206 201 263 266 232 190 211 245 248 236 236 233 17 57 104 98 76 70 71 74 73 64 66 62 56 56 52 49
188 189 207 187 188 187 177 174 186 193 205 229 229 229 233 248 266 236 223 220 226 233 238 235 227 241 261 266 254 234 177 225 226 240 246 237 252 261 49 27 345 29 50 342 277 276 273 257 253 253 246 233 225 194 207 217 205 197 210 213 217 203 190 244 237 195 205 239 235 245 248 220 43 40 99 111 105 102 98 96 87 65 60 57 51 51 49 46
177 178 181 175 179 173 166 170 201 201 211 230 229 232 228 242 257 236 235 224 227 248 250 238 247 248 254 264 262 257 239 245 241 237 242 242 244 250 31 31 17 38 42 310 322 341 327 284 277 259 248 259 268 68 41 288 64 48 250 227 265 242 186 236 241 221 225 229 221 248 251 215 28 15 93 112 112 106 104 103 102 91 75 69 62 57 52 45
178 164 159 163 170 171 167 178 211 197 218 232 230 236 230 243 255 209 201 217 214 238 244 235 245 242 245 253 255 254 249 247 244 240 245 254 245 273 13 20 20 32 19 282 272 356 175 218 266 260 255 271 268 120 81 16 75 245 250 228 244 250 238 246 256 277 256 231 221 244 245 196 130 124 114 116 113 105 103 110 120 124 116 93 72 60 53 44
170 159 157 161 170 175 177 197 204 200 221 224 227 238 233 238 245 227 221 213 216 223 225 243 249 237 242 246 239 244 245 248 248 237 237 266 245 53 28 25 40 76 34 257 279 311 262 256 291 284 267 265 252 212 141 83 102 273 277 281 295 282 280 276 265 268 250 223 225 247 256 211 139 158 138 127 125 117 111 116 126 129 126 110 77 59 48 38
155 162 171 174 179 184 197 237 211 207 216 220 232 239 238 244 251 247 246 233 227 219 217 252 240 220 233 218 198 241 232 242 257 226 179 250 236 86 40 40 60 85 97 84 87 124 276 267 243 275 269 259 266 271 260 91 35 328 315 334 350 356 322 304 276 257 253 217 221 249 267 294 120 164 176 157 142 137 131 125 123 123 114 90 68 50 35 28
146 165 177 188 198 206 226 247 219 215 211 215 229 237 241 246 252 243 235 233 232 225 227 245 221 202 225 213 219 244 234 229 236 232 245 263 222 96 46 46 59 73 111 90 80 161 234 252 225 248 266 271 285 290 289 75 305 282 294 304 304 298 298 306 275 261 294 308 270 266 278 291 281 232 237 208 143 142 154 155 154 152 144 125 87 44 25 17
140 182 150 175 218 227 231 229 212 208 187 197 214 236 239 234 232 223 215 216 229 222 228 237 200 210 229 212 225 247 243 227 217 232 259 268 242 83 57 72 56 49 127 118 44 151 229 261 237 241 255 261 274 280 269 41 258 255 269 277 278 276 267 263 256 265 307 309 276 271 280 280 276 273 278 283 118 129 145 155 169 183 196 212 235 271 318 340
142 170 151 156 189 225 222 215 195 193 196 191 209 270 246 222 215 211 199 175 39 222 234 227 159 86 337 73 164 248 281 305 252 220 242 278 340 35 28 100 70 48 71 187 15 138 238 266 252 253 263 263 272 275 259 263 265 259 260 264 273 276 269 263 262 269 278 273 270 286 287 277 276 281 288 327 82 102 104 121 178 208 228 236 249 264 277 305
151 147 155 165 170 58 132 124 107 177 218 212 219 256 247 239 243 236 136 55 266 254 250 235 203 61 44 65 100 245 279 294 273 243 130 27 330 359 301 260 115 57 46 6 298 201 227 253 243 257 271 270 272 274 271 276 276 270 265 263 268 269 268 269 269 266 263 261 265 274 272 268 273 286 336 91 95 102 87 274 245 242 249 246 250 261 268 285
170 168 153 152 135 83 98 92 76 130 227 220 232 247 237 242 251 247 199 302 249 246 265 254 231 106 101 99 131 241 263 259 263 264 164 126 266 193 272 265 145 30 12 348 284 286 264 248 136 255 277 271 271 276 281 283 278 274 272 266 262 262 264 267 266 262 259 258 257 257 259 262 270 72 92 115 134 152 261 268 258 251 255 254 257 263 264 269
177 173 155 139 131 128 131 117 121 172 221 217 221 242 242 242 248 242 216 2 279 259 251 211 149 123 145 167 176 237 251 185 215 237 166 183 265 298 332 244 67 355 334 284 269 307 288 278 20 323 281 268 273 282 289 295 283 272 266 260 255 254 254 253 252 252 253 255 255 253 256 260 155 100 93 154 180 253 283 287 287 279 270 268 271 274 273 270
184 183 174 156 135 145 147 135 152 184 209 208 204 213 226 237 98 154 216 105 66 66 92 109 115 125 203 232 235 245 239 204 190 227 264 270 276 276 264 258 258 253 233 247 295 262 249 264 287 289 277 270 276 282 305 320 288 266 254 251 250 249 251 251 247 249 251 254 260 262 264 250 126 131 97 141 203 276 299 301 301 303 295 285 287 292 293 289